Stations météo

Publicité
Lentran, Grande-Bretagne (99125): Température de l'air & dewpoint: 14.09.2019 04:00:00 - 20.09.2019 04:00:00 (BST)Lentran, Grande-Bretagne (99125): Quantités de précipitations: 14.09.2019 04:00:00 - 20.09.2019 04:00:00 (BST)
Date & Time tt [°C] td [°C] rr [mm]
20.09.2019 04:00:00 6,7 4,5 0,0
20.09.2019 03:00:00 7,1 5,4 0,0
20.09.2019 02:00:00 7,2 6,2 0,0
20.09.2019 01:00:00 7,7 6,2 0,0
20.09.2019 00:00:00 8,5 6,9 0,0
19.09.2019 23:00:00 9,2 7,9 0,0
19.09.2019 22:00:00 10,8 9,0 0,0
19.09.2019 21:00:00 10,7 9,5 0,0
19.09.2019 20:00:00 11,8 10,2 0,0
19.09.2019 19:00:00 13,9 10,2 0,0
19.09.2019 18:00:00 17,4 10,4 0,0
19.09.2019 17:00:00 17,5 11,5 0,0
19.09.2019 16:00:00 17,6 11,9 0,0
19.09.2019 15:00:00 18,1 12,7 0,0
19.09.2019 14:00:00 17,5 13,0 0,0
19.09.2019 13:00:00 16,7 12,0 0,0
19.09.2019 12:00:00 16,6 12,3 0,0
19.09.2019 11:00:00 14,8 11,5 0,0
19.09.2019 10:00:00 13,2 11,2 0,0
19.09.2019 09:00:00 12,4 11,0 0,0
19.09.2019 08:00:00 11,6 10,3 0,0
19.09.2019 07:00:00 10,9 10,0 0,0
19.09.2019 06:00:00 11,4 10,4 0,0
19.09.2019 05:00:00 11,3 10,2 0,2
19.09.2019 04:00:00 11,5 10,3 0,0
19.09.2019 03:00:00 11,1 10,3 0,0
19.09.2019 02:00:00 10,2 9,7 0,0
19.09.2019 01:00:00 12,5 11,0 0,0
19.09.2019 00:00:00 11,8 11,3 0,0
18.09.2019 23:00:00 11,0 10,8 0,0
18.09.2019 22:00:00 11,1 10,7 0,0
18.09.2019 21:00:00 11,4 11,1 0,0
18.09.2019 20:00:00 11,8 11,4 0,0
18.09.2019 19:00:00 12,2 11,7 0,0
18.09.2019 18:00:00 12,6 11,8 0,2
18.09.2019 17:00:00 13,4 11,7 0,0
18.09.2019 16:00:00 14,7 12,7 0,0
18.09.2019 15:00:00 14,9 12,4 0,0
18.09.2019 14:00:00 14,1 12,7 0,0
18.09.2019 13:00:00 13,5 11,0 0,0
18.09.2019 12:00:00 13,0 11,8 0,0
18.09.2019 11:00:00 11,4 10,8 0,0
18.09.2019 10:00:00 9,7 8,9 0,0
18.09.2019 09:00:00 8,7 8,5 0,0
18.09.2019 08:00:00 7,9 7,6 0,0
18.09.2019 07:00:00 7,8 7,5 0,0
18.09.2019 06:00:00 7,3 7,1 0,2
18.09.2019 05:00:00 7,1 6,8 0,6
18.09.2019 04:00:00 7,1 6,6 0,2
18.09.2019 03:00:00 7,2 6,3 0,2
18.09.2019 02:00:00 7,3 6,5 0,0
18.09.2019 01:00:00 7,6 6,9 0,4
18.09.2019 00:00:00 7,7 6,9 0,2
17.09.2019 23:00:00 8,0 6,7 0,0
17.09.2019 22:00:00 8,1 6,1 0,0
17.09.2019 21:00:00 8,0 5,8 0,0
17.09.2019 20:00:00 8,5 5,7 0,0
17.09.2019 19:00:00 9,8 6,0 0,0
17.09.2019 18:00:00 11,1 4,3 0,0
17.09.2019 17:00:00 11,6 3,6 0,0
17.09.2019 16:00:00 12,3 3,2 0,0
17.09.2019 15:00:00 12,5 2,7 0,0
17.09.2019 14:00:00 12,0 4,1 0,0
17.09.2019 13:00:00 11,6 3,9 0,0
17.09.2019 12:00:00 11,7 3,4 0,0
17.09.2019 11:00:00 10,0 4,1 0,0
17.09.2019 10:00:00 9,8 5,8 0,0
17.09.2019 09:00:00 8,8 5,3 0,0
17.09.2019 08:00:00 7,8 4,3 0,0
17.09.2019 07:00:00 8,0 3,8 0,0
17.09.2019 06:00:00 7,5 3,1 0,0
17.09.2019 05:00:00 7,9 2,7 0,0
17.09.2019 04:00:00 7,7 2,6 0,0
17.09.2019 03:00:00 7,8 3,2 0,0
17.09.2019 02:00:00 8,1 4,9 0,0
17.09.2019 01:00:00 8,7 4,9 0,0
17.09.2019 00:00:00 8,2 5,2 0,0
16.09.2019 23:00:00 9,0 5,6 0,0
16.09.2019 22:00:00 9,6 5,9 0,0
16.09.2019 21:00:00 9,4 5,9 0,0
16.09.2019 20:00:00 10,1 6,0 0,0
16.09.2019 19:00:00 10,9 5,8 0,0
16.09.2019 18:00:00 11,6 6,3 0,0
16.09.2019 17:00:00 12,7 8,2 0,0
16.09.2019 16:00:00 12,3 7,7 0,0
16.09.2019 15:00:00 12,2 7,2 0,0
16.09.2019 14:00:00 11,9 7,6 0,0
16.09.2019 13:00:00 12,1 8,0 0,0
16.09.2019 12:00:00 - - -
16.09.2019 11:00:00 - - -
16.09.2019 10:00:00 10,0 7,3 0,0
16.09.2019 09:00:00 9,9 5,5 0,0
16.09.2019 08:00:00 9,1 5,1 0,0
16.09.2019 07:00:00 8,9 4,4 0,0
16.09.2019 06:00:00 8,3 4,7 0,0
16.09.2019 05:00:00 8,3 5,4 0,0
16.09.2019 04:00:00 7,9 5,5 0,0
16.09.2019 03:00:00 8,5 5,5 0,0
16.09.2019 02:00:00 7,5 4,6 0,0
16.09.2019 01:00:00 7,6 4,1 0,0
16.09.2019 00:00:00 8,0 4,0 0,0
15.09.2019 23:00:00 8,3 4,7 0,0
15.09.2019 22:00:00 8,4 5,0 0,0
15.09.2019 21:00:00 8,4 3,3 0,0
15.09.2019 20:00:00 8,0 3,8 0,0
15.09.2019 19:00:00 10,8 4,0 0,0
15.09.2019 18:00:00 11,1 3,9 0,0
15.09.2019 17:00:00 11,5 5,1 0,0
15.09.2019 16:00:00 12,2 5,7 0,0
15.09.2019 15:00:00 12,9 4,3 0,0
15.09.2019 14:00:00 12,2 4,0 0,0
15.09.2019 13:00:00 12,2 4,8 0,0
15.09.2019 12:00:00 11,3 5,9 0,0
15.09.2019 11:00:00 10,9 5,6 0,0
15.09.2019 10:00:00 10,8 4,5 0,0
15.09.2019 09:00:00 10,1 4,9 0,0
15.09.2019 08:00:00 9,7 4,6 0,0
15.09.2019 07:00:00 9,4 3,3 0,0
15.09.2019 06:00:00 9,5 3,6 0,0
15.09.2019 05:00:00 9,5 2,0 0,0
15.09.2019 04:00:00 9,2 4,7 0,0
15.09.2019 03:00:00 10,2 4,7 0,0
15.09.2019 02:00:00 10,3 5,6 0,0
15.09.2019 01:00:00 10,6 5,3 0,0
15.09.2019 00:00:00 11,3 6,6 0,0
14.09.2019 23:00:00 11,0 7,1 0,0
14.09.2019 22:00:00 10,3 8,2 0,0
14.09.2019 21:00:00 10,0 8,1 0,4
14.09.2019 20:00:00 12,4 10,6 0,0
14.09.2019 19:00:00 13,9 12,3 0,2
14.09.2019 18:00:00 14,8 13,5 0,4
14.09.2019 17:00:00 15,2 13,3 0,2
14.09.2019 16:00:00 15,8 13,1 0,2
14.09.2019 15:00:00 14,8 12,4 0,0
14.09.2019 14:00:00 13,7 11,4 0,0
14.09.2019 13:00:00 12,9 10,5 0,0
14.09.2019 12:00:00 13,1 10,1 0,0
14.09.2019 11:00:00 13,2 9,8 0,0
14.09.2019 10:00:00 11,7 9,3 0,0
14.09.2019 09:00:00 12,1 9,0 0,0
14.09.2019 08:00:00 11,6 7,8 0,0
14.09.2019 07:00:00 11,8 7,2 0,0
14.09.2019 06:00:00 11,1 7,8 0,0
14.09.2019 05:00:00 10,9 8,3 0,0
14.09.2019 04:00:00 11,1 7,9 0,0

tt = Température de l'air
td = dewpoint
rr = Quantités de précipitations

stations d'obs. à proximité